Regional Weather Roundup
Issued by NWS

Home | Current Version | Previous Version | Text Only | Print | Product List | Glossary Off
Versions: 1 2 3 4 5 6 7 8 9 10 11 12 13 14 15 16 17 18 19 20 21 22 23 24 25 26 27 28 29 30 31 32 33 34 35 36 37 38 39 40 41 42 43 44 45 46 47 48 49 50

000
ASUS43 KOAX 221702
RWRNE

WEATHER ROUNDUP FOR NEBRASKA
NATIONAL WEATHER SERVICE OMAHA NE
1200 PM CDT SUN APR 22 2018

NOTES: SATELLITE DATA IS BEING USED TO AUGMENT CLOUD COVER ABOVE
       12000 FEET.
       "FAIR" INDICATES FEW OR NO CLOUDS BELOW 12,000 FEET WITH NO
       SIGNIFICANT WEATHER AND/OR OBSTRUCTIONS TO VISIBILITY.


NEZ001>004-019>022-054>056-221800-
NEBRASKA PANHANDLE

CITY           SKY/WX    TMP DP  RH WIND       PRES   REMARKS
SCOTTSBLUFF    CLOUDY    46  41  82 W5        30.21S
ALLIANCE       MOSUNNY   47  41  80 S3        30.19S
CHADRON        MOSUNNY   52  40  63 CALM      30.17F
GORDON         FAIR      48  42  79 SW9       30.19F
KIMBALL        MOSUNNY   50  39  67 CALM      30.19S
SIDNEY         PTSUNNY   48  32  53 CALM      30.20F
$$

NEZ057>060-069>072-079>082-221800-
SOUTHWEST NEBRASKA

CITY           SKY/WX    TMP DP  RH WIND       PRES   REMARKS
NORTH PLATTE   MOSUNNY   52  36  54 SW3       30.24S
IMPERIAL       MOSUNNY   50  37  61 VRB5      30.23S
LEXINGTON      MOSUNNY   51  41  67 E6        30.25S
MCCOOK         MOSUNNY   51  37  58 NE6       30.23F
OGALLALA       MOSUNNY   49  40  72 S5        30.23S
$$

NEZ005>010-023>029-035>040-094-221800-
NORTH CENTRAL NEBRASKA

CITY           SKY/WX    TMP DP  RH WIND       PRES   REMARKS
VALENTINE      PTSUNNY   53  37  54 S9        30.23F
AINSWORTH      MOSUNNY   51  37  59 SW8       30.24F
BROKEN BOW     MOSUNNY   52  39  61 E6        30.24F
O`NEILL        SUNNY     58  30  34 NE3       30.26S
ORD            SUNNY     55  35  47 S3        30.24S
THEDFORD       PTSUNNY   53  36  52 S7        30.24F
$$

NEZ041-046>049-061>064-073>077-083>087-221800-
SOUTH CENTRAL NEBRASKA

CITY           SKY/WX    TMP DP  RH WIND       PRES   REMARKS
GRAND ISLAND   SUNNY     56  38  50 NE12      30.24F
AURORA         SUNNY     56  35  45 NE9       30.24S
HASTINGS       SUNNY     55  38  52 NE10      30.24F
HEBRON         CLOUDY    56  40  54 N13       30.21S
HOLDREGE       SUNNY     51  40  66 NE6       30.25S
KEARNEY        SUNNY     53  38  56 NE7       30.25F
YORK             N/A     55  32  41 NE12      30.23F
$$

NEZ011>018-030>034-042>045-221800-
NORTHEAST NEBRASKA

CITY           SKY/WX    TMP DP  RH WIND       PRES   REMARKS
NORFOLK        MOSUNNY   57  31  37 E8        30.23F
ALBION         SUNNY     58  31  36 NE7       30.25S
BLAIR          MOSUNNY   61  33  35 N13       30.22S
COLUMBUS       CLOUDY    57  34  41 NE12      30.25F
FREMONT        CLOUDY    58  32  37 E9        30.25S
TEKAMAH        CLOUDY    57  33  40 NE10      30.25F
WAYNE          PTSUNNY   58  33  39 CALM      30.26S
$$

NEZ050>053-065>068-078-088>093-221800-
SOUTHEAST NEBRASKA

CITY           SKY/WX    TMP DP  RH WIND       PRES   REMARKS
LINCOLN        CLOUDY    57  34  41 N10       30.24R
OMAHA EPPLEY   PTSUNNY   63  30  28 VRB6G16   30.22S
BEATRICE       CLOUDY    57  38  50 NE7       30.21F
FALLS CITY     PTSUNNY   57  35  43 E6        30.17F
NEBRASKA CITY  CLOUDY    59  35  39 N3        30.20S
PLATTSMOUTH    CLOUDY    60  32  34 NE7       30.21S
$$

NEZ044-045-051>053-067-221800-
OMAHA AREA

CITY           SKY/WX    TMP DP  RH WIND       PRES   REMARKS
OMAHA EPPLEY   PTSUNNY   63  30  28 VRB6G16   30.22S
BLAIR          MOSUNNY   61  33  35 N13       30.22S
FREMONT        CLOUDY    58  32  37 E9        30.25S
MILLARD        CLOUDY    62  33  34 NE3       30.22S
PLATTSMOUTH    CLOUDY    60  32  34 NE7       30.21S
WAHOO          CLOUDY    59  28  31 N9        30.24R
$$




USA.gov is the U.S. government's official web portal to all federal, state and local government web resources and services.